Terug naar catalogus

STARLINK-35058

ActiefCommunicatieSSO
NORAD 65394·PAYLOAD·🇺🇸 United States

Gelanceerd Aug 30, 2025 vanaf Vandenberg Space Force Base

Loading…

Volgende Passages (komende 24 uur)

TLE

VersSource: CelesTrak SupGP

Epoch: Sep 14, 2026, 15:08 UTC

1 65394C 25191R   26257.63104167  .00015551  00000+0  48277-3 0  2579
2 65394  97.2845 123.6813 0001870  89.4979 332.3491 15.33428409    15

Volg STARLINK-35058 in realtime met AllMySat

Download on the App Store